CAPE
13 18 18 16 5 0 0 0 0 0 1 10 5 12 9 6 1 1 0 0 0 0 0 0 0 0 0 0 0 0 0 0 0 0 0 1 0 0 0 0 9 42 133 11 0 0 0 43 317 404 328 416 832 1431
22 16 11 16 15 6 4 10 9 5 0 16 6 10 11 8 0 3 0 0 0 0 0 0 0 0 0 0 0 0 0 0 0 0 0 0 0 0 0 7 0 197 55 359 283 138 55 42 107 111 187 744 759 1572
29 21 20 25 20 12 4 8 12 4 33 28 19 8 27 4 0 2 1 0 0 0 0 0 0 0 0 0 0 0 0 0 0 0 0 0 0 0 0 0 0 0 0 353 205 122 111 52 97 156 249 540 429 772
29 21 15 22 20 6 4 4 19 12 36 38 32 24 3 0 0 2 4 2 1 0 0 0 0 0 0 0 0 0 0 0 0 0 0 0 0 0 0 0 0 0 0 62 34 30 13 5 78 197 37 38 94 134
34 25 14 17 22 16 5 9 20 8 22 33 8 1 0 0 0 0 2 1 2 0 0 0 0 0 0 0 0 0 0 0 0 0 0 0 0 0 0 0 0 0 19 32 23 305 291 198 33 0 14 24 17 8
17 20 18 20 24 21 20 15 15 9 19 10 18 2 0 0 0 0 2 3 2 5 1 0 0 0 0 0 0 0 0 0 0 0 0 0 0 0 0 0 0 0 0 0 0 0 0 0 0 0 0 0 0 0
27 27 27 25 30 25 29 34 32 27 20 20 24 7 0 0 0 0 3 5 0 0 2 0 0 0 0 0 0 0 0 0 0 0 0 0 0 0 0 0 0 0 0 0 0 0 0 0 0 0 0 0 0 18
71 61 69 57 37 33 40 32 36 30 30 10 9 0 0 0 0 0 0 0 0 0 4 2 0 0 0 0 0 0 0 0 0 0 0 0 0 0 0 0 0 0 0 0 0 0 0 0 0 0 0 0 26 57
72 64 70 67 50 47 42 31 35 32 29 18 16 0 0 5 4 0 0 0 0 5 41 12 0 0 0 0 0 0 0 0 0 0 0 0 0 0 0 0 0 0 0 0 0 0 0 0 0 0 0 0 35 166
83 72 65 78 65 58 61 42 39 40 29 25 1 10 17 0 0 1 9 18 5 4 3 28 0 0 0 0 0 0 0 0 0 0 0 0 0 0 0 0 0 0 0 0 0 0 0 0 0 0 0 0 42 195
84 74 71 72 65 72 90 49 38 27 33 17 14 14 2 0 7 0 29 33 20 53 10 18 22 0 0 0 0 0 0 0 0 0 0 0 0 0 0 0 0 0 0 0 0 0 0 0 0 0 0 0 0 41
70 69 66 75 58 71 75 50 36 56 47 12 13 1 41 115 64 36 17 7 6 23 29 32 2 0 0 0 0 0 0 0 2 0 0 0 0 0 0 0 0 0 0 0 0 0 0 0 0 0 0 0 0 0
71 65 65 68 67 67 81 43 37 39 23 24 74 63 128 61 28 19 14 3 14 0 27 15 1 0 0 0 0 0 0 8 0 0 0 0 0 0 0 0 0 0 0 0 0 0 0 0 0 0 0 0 0 0
55 55 59 67 72 56 46 39 47 38 18 44 90 53 108 80 18 5 1 5 0 0 10 19 6 30 9 31 26 13 4 0 1 17 3 0 0 0 0 0 0 0 0 0 0 0 0 0 0 0 0 0 0 0
57 46 45 53 43 26 31 12 15 43 30 19 71 31 16 14 0 0 0 0 0 10 15 21 2 26 17 64 96 53 15 14 0 0 0 0 0 0 0 0 0 0 0 0 0 0 0 0 0 0 0 0 0 0
45 40 36 43 33 25 34 11 36 37 19 22 18 25 47 25 48 26 9 0 0 16 35 26 4 3 38 63 47 67 45 17 0 0 0 0 0 0 0 0 0 0 0 0 0 0 0 0 0 0 0 0 0 0
43 24 34 33 37 35 20 25 42 33 11 15 39 16 29 25 40 62 13 56 26 80 27 24 37 20 2 4 18 5 3 0 0 0 0 0 0 0 0 0 0 0 0 0 0 0 0 0 0 0 0 0 0 0
12 2 40 32 22 21 26 28 31 29 10 11 8 24 0 11 10 6 0 2 108 92 64 28 32 30 13 9 24 14 5 0 0 0 0 0 0 0 0 0 0 0 0 0 0 0 0 0 0 0 0 0 0 0
9 3 39 31 8 11 12 15 25 9 15 17 10 2 1 8 21 8 0 0 4 66 33 23 31 20 27 27 24 18 36 26 0 0 0 0 0 0 0 0 0 0 0 0 0 0 0 0 0 0 0 0 0 0
14 29 46 22 21 20 11 14 19 18 9 16 0 2 0 0 7 3 0 1 6 7 25 10 8 1 16 52 91 154 113 90 11 0 0 0 0 0 0 0 0 0 0 0 0 0 0 0 0 0 2 3 4 0
24 40 43 14 10 5 2 12 24 2 3 6 2 0 0 0 0 0 0 0 10 0 0 13 13 0 1 18 34 13 0 0 0 0 0 0 0 0 0 0 0 0 0 0 0 0 0 0 0 1 4 3 4 7
43 16 14 22 10 6 9 13 16 27 45 19 6 2 8 0 0 0 0 0 0 0 0 0 1 1 0 0 0 0 0 0 0 0 0 0 0 0 0 0 0 0 0 0 0 0 0 0 0 3 6 0 1 9
9 15 12 20 8 2 0 15 26 14 26 47 27 26 37 28 2 0 0 0 0 0 0 0 0 0 0 0 0 0 0 0 0 0 0 0 0 0 0 0 0 0 0 0 0 0 0 0 0 3 0 3 5 8
8 9 6 6 6 7 0 10 26 22 35 20 23 33 30 17 0 0 0 0 0 0 0 0 0 0 0 0 0 0 0 0 0 0 0 0 0 0 0 0 0 0 0 0 0 0 0 0 0 10 10 13 11 6
0 4 1 0 15 22 12 16 21 6 15 2 1 8 17 2 50 13 0 0 0 0 0 0 0 0 0 0 0 0 0 0 0 0 0 0 0 0 1 1 1 0 0 0 0 0 0 0 2 7 13 12 10 10
0 2 1 13 9 5 21 25 10 7 9 4 0 0 0 2 6 0 0 4 78 77 48 18 13 1 0 0 0 0 0 0 0 0 0 0 0 2 10 16 9 0 13 0 0 0 0 0 12 17 16 7 1 1
0 4 0 0 4 24 20 11 12 18 22 3 28 25 29 33 12 10 52 43 108 107 46 5 5 9 1 0 0 0 0 0 0 0 0 0 0 0 0 0 0 1 13 8 17 16 4 24 47 12 15 14 23 14
1 13 10 2 6 12 4 3 2 22 22 27 87 56 46 34 59 220 120 96 59 10 6 2 0 0 0 0 0 0 0 0 1 2 0 0 0 0 2 0 0 0 0 4 19 46 74 79 23 13 6 1 12 11
1 0 1 4 3 1 3 5 44 62 112 144 62 20 101 101 68 70 27 3 1 3 10 0 0 0 0 0 0 0 0 0 19 30 36 51 50 65 33 31 19 21 22 34 0 0 88 64 4 10 3 0 1 1
0 0 0 0 0 3 13 0 19 19 41 76 28 7 12 12 13 1 0 0 1 2 1 0 1 1 9 24 70 81 69 37 30 56 76 80 76 45 63 51 42 59 58 68 147 140 1 7 18 22 2 11 4 0
0 0 0 0 0 6 3 0 0 0 0 0 2 4 4 1 0 0 74 96 64 23 3 6 7 25 147 150 146 163 142 147 68 38 34 42 50 23 17 39 22 104 113 148 256 329 343 98 57 32 9 1 1 0
0 0 0 0 0 0 0 0 0 0 0 0 0 0 0 0 0 0 100 109 83 64 16 37 64 49 14 7 4 12 1 21 27 29 29 27 21 15 19 11 26 289 331 284 166 95 39 23 24 25 34 22 9 6
0 0 0 0 0 0 0 4 37 40 40 47 35 14 8 44 53 105 28 36 62 51 60 63 22 28 44 34 20 10 4 14 3 0 0 0 0 0 0 10 9 3 223 248 153 153 116 55 31 26 46 30 19 5
CIN
0 0 0 0 0 0 0 0 0 0 -1 0 0 -1 -2 -3 -4 0 0 0 0 0 0 0 0 0 0 0 0 0 0 0 0 0 0 -22 0 0 0 0 -59 -83 -33 -42 0 0 0 -286 -123 -47 -153 -283 -182 -149
-2 0 0 0 0 0 -1 0 0 0 0 -6 0 -2 -1 -4 -8 -1 0 0 0 0 0 0 0 0 0 0 0 0 0 0 0 0 0 0 0 0 0 -70 0 -46 -124 -15 -30 -24 -271 -363 -250 -276 -290 -164 -199 -121
-4 -1 0 0 0 0 -1 0 0 -2 -1 -3 -4 -3 0 -4 0 0 0 0 0 0 0 0 0 0 0 0 0 0 0 0 0 0 0 0 0 0 0 0 0 0 0 -74 -106 -168 -151 -215 -232 -212 -175 -113 -141 -118
-6 -4 0 0 0 -1 -2 -2 0 -1 0 0 -1 -2 -7 0 0 0 0 0 0 0 0 0 0 0 0 0 0 0 0 0 0 0 0 0 0 0 0 0 0 0 0 -157 -142 -231 -85 -83 -176 -120 -261 -269 -199 -202
-4 -1 0 0 0 0 -2 -2 0 -1 0 0 -4 -13 0 0 0 0 0 0 0 0 0 0 0 0 0 0 0 0 0 0 0 0 0 0 0 0 0 0 0 0 -94 -102 -91 -75 -82 -88 -196 0 -282 -260 -271 -178
-1 0 0 0 0 0 0 -3 -3 -6 0 -6 0 -2 0 0 0 0 0 0 0 0 0 0 0 0 0 0 0 0 0 0 0 0 0 0 0 0 0 0 0 0 0 0 0 0 0 0 0 0 0 0 0 0
0 0 0 0 0 0 0 -7 -3 -2 -1 -1 0 -5 -9 0 0 0 0 0 0 0 0 0 0 0 0 0 0 0 0 0 0 0 0 0 0 0 0 0 0 0 0 0 0 0 0 0 0 0 0 0 0 -248
0 -1 -1 0 0 0 0 -5 -3 -4 -3 -5 -2 -1 0 0 0 0 0 0 0 0 0 0 0 0 0 0 0 0 0 0 0 0 0 0 0 0 0 0 0 0 0 0 0 0 0 0 0 0 0 0 -233 -169
-5 -4 0 0 0 0 -1 -8 -5 -3 -6 -7 -6 -3 0 0 -18 -4 0 0 0 0 0 0 0 0 0 0 0 0 0 0 0 0 0 0 0 0 0 0 0 0 0 0 0 0 0 0 0 0 0 0 -208 -114
-4 -6 -4 0 0 -1 -1 -4 -6 -2 -4 -10 -24 -10 -14 0 0 -52 -8 -3 0 0 0 -1 0 0 0 0 0 0 0 0 0 0 0 0 0 0 0 0 0 0 0 0 0 0 0 0 0 0 0 0 -204 -112
-6 -8 -5 -1 0 0 0 -4 -6 -5 -5 -5 -1 -3 -21 0 -26 -6 0 0 -1 0 -1 -11 -40 0 0 0 0 0 0 0 0 0 0 0 0 0 0 0 0 0 0 0 0 0 0 0 0 0 0 0 0 -164
-9 -8 -9 -2 -2 0 -1 -4 -5 -1 -1 -1 0 0 -21 0 -4 0 -1 -2 -2 -3 -2 -2 -2 0 0 0 0 0 0 0 -13 0 0 0 0 0 0 0 0 0 0 0 0 0 0 0 0 0 0 0 0 0
-15 -13 -11 -5 -2 -3 -2 -6 -5 -2 -6 -1 -2 0 0 -6 -5 0 0 0 0 0 -2 -16 0 0 0 -39 0 0 -3 -53 -1 0 0 0 0 0 0 0 0 0 0 0 0 0 0 0 0 0 0 0 0 0
-15 -14 -12 -8 -5 -5 -6 -11 -5 -2 -4 0 0 0 0 0 -1 -1 0 -2 0 0 -1 -21 -48 -13 -17 -8 -16 -37 -45 0 -66 -34 -27 0 0 0 0 0 0 0 0 0 0 0 0 0 0 0 0 0 0 0
-10 -15 -8 -4 -5 -8 -5 -9 -9 0 0 -4 0 0 0 -7 -29 0 0 -3 -10 -23 0 -5 -12 -16 -33 -7 -23 -14 -31 -7 0 0 0 0 0 0 0 0 0 0 0 0 0 0 0 0 0 0 0 0 0 0
-5 -3 -1 -3 -4 -4 -2 -10 0 0 0 0 0 0 -1 -8 -4 -17 -28 0 0 -8 -1 -3 -6 0 0 -15 -10 -4 -1 0 0 0 0 0 0 0 0 0 0 0 0 0 0 0 0 0 0 0 0 0 0 0
-4 -2 -3 -2 -1 -1 -2 -3 -1 0 0 0 0 -5 0 -6 -7 -2 -28 -1 -15 0 0 0 0 -4 0 -2 -2 -1 -2 0 0 0 0 0 0 0 0 0 0 0 0 0 0 0 0 0 0 0 0 0 0 0
-5 -21 -1 0 -2 -1 -1 0 0 0 0 0 0 0 -2 -4 -3 -11 -7 -20 0 -1 -1 0 -6 0 0 0 0 0 -11 0 0 0 0 0 0 0 0 0 0 0 0 0 0 0 0 0 0 0 0 0 0 0
-22 -26 -3 0 -10 -6 0 0 0 0 -1 0 0 0 0 -3 -3 -10 0 0 -2 0 -11 -13 -2 0 0 0 -1 -3 -2 0 0 0 0 0 0 0 0 0 0 0 0 0 0 0 0 0 0 0 0 0 0 0
-6 -6 -2 -3 -9 -1 0 0 0 0 0 0 0 -5 0 0 -17 -14 0 -8 -6 -11 -6 -7 -4 -19 -13 -1 -12 -5 -13 -18 -49 0 0 0 0 0 0 0 0 0 0 0 0 0 0 0 0 0 0 0 0 0
-4 0 0 -6 -4 -4 0 -1 0 -1 0 0 -2 0 0 0 0 0 0 0 -22 0 0 -23 -32 0 -98 -89 -80 -72 -1 0 0 0 0 0 0 0 0 0 0 0 0 0 0 0 0 0 0 0 0 0 0 -119
0 -3 -7 -5 -2 0 0 0 0 0 0 -3 0 -9 -5 0 0 0 0 0 0 0 0 0 -65 -67 0 0 0 0 0 0 0 0 0 0 0 0 0 0 0 0 0 0 0 0 0 0 0 0 0 0 0 0
-14 -6 -3 -2 0 0 0 0 0 0 0 0 -3 0 -1 -3 -6 0 0 0 0 0 0 0 0 0 0 0 -8 0 0 0 0 0 0 0 0 0 0 0 0 0 0 0 0 0 0 0 0 0 0 0 0 0
-12 -1 0 -1 0 0 0 0 0 0 0 0 0 0 -3 -9 0 0 0 0 0 0 0 0 0 0 0 0 0 0 0 0 0 0 0 0 0 0 0 0 0 0 0 0 0 0 0 0 0 0 0 0 0 0
0 0 0 0 0 0 -1 0 0 0 0 0 0 -5 -10 -52 -5 -9 -1 -14 0 0 0 0 0 0 0 0 0 0 0 0 0 0 0 0 0 -6 -3 -3 -4 -5 0 0 0 0 0 0 0 0 0 0 0 0
0 -2 0 -1 0 0 0 0 0 0 0 -1 0 0 0 -22 -7 0 0 -30 -34 -35 -44 -50 -46 -13 0 0 0 0 0 0 0 0 0 0 0 -35 -28 -30 -33 0 -86 0 0 0 0 0 0 0 0 0 -1 0
-1 -2 0 0 -8 0 0 0 0 -1 -1 -2 -5 -13 -16 0 -1 -5 -59 -77 -44 -59 -89 -84 -84 -56 -20 0 0 0 0 0 0 0 0 0 0 0 0 0 0 -14 -87 -94 -67 -48 0 0 0 -2 0 0 0 0
0 -4 0 0 0 0 0 0 0 -2 -6 -14 -15 -2 -2 -2 -1 -11 -31 -50 -77 -84 -82 -48 0 -13 0 0 0 0 0 0 -39 -42 0 0 0 0 -29 0 0 0 0 -113 -92 -33 -1 -6 0 -3 0 0 0 0
0 0 0 -10 0 0 0 -11 -6 -16 -31 -25 -1 -2 -4 -19 -23 -11 -14 -35 -80 -77 -31 -1 0 0 0 0 0 0 0 -3 -18 -7 -6 -3 -2 0 -14 -25 -33 -46 -86 -116 0 0 -2 0 -3 -2 0 0 0 0
0 0 0 0 0 -1 -1 -11 -12 -38 -77 -39 -16 -9 -5 -36 -34 -34 0 0 -22 -13 -22 0 -18 -20 -19 -15 -10 -12 -48 -45 -34 -15 -3 -6 -7 -18 -30 -34 -45 -45 -63 -76 -41 -14 0 -4 -23 -4 -1 0 0 0
0 0 0 0 -3 -12 -12 0 0 0 0 0 -37 -24 -13 -6 0 0 -87 -82 -83 -90 -89 -67 -57 -58 -39 -13 -10 -9 -7 -36 -52 -50 -38 -23 -15 -42 -65 -38 -35 -27 -50 -42 -7 -1 0 0 -6 -3 -4 0 0 0
0 0 0 0 0 0 0 0 0 0 0 0 0 0 0 0 0 0 -49 -38 -22 -17 -62 -60 -31 -21 -53 -52 -51 -57 -4 -54 -43 -36 -37 -31 -28 -54 -58 -61 -31 -11 -6 -4 -9 -19 -21 -15 -7 -6 -1 0 0 -9
0 0 0 0 0 0 0 -10 -10 -9 -10 -6 -7 -12 -12 -5 -4 -11 -37 -46 -33 -39 -20 -11 -26 -23 -14 -14 -19 -34 -3 -15 -46 0 0 0 0 0 0 -25 -35 -77 -28 -22 -38 -17 -5 -3 -8 -6 -1 0 -3 -2
Wind_Speed
14 13 14 14 14 14 15 15 15 17 16 14 14 14 12 8 8 6 4 2 3 2 5 4 3 3 3 1 2 4 3 2 1 2 1 1 1 2 1 1 0 2 4 3 3 2 4 2 3 3 4 2 3 7
13 12 14 14 15 14 15 15 15 16 17 15 13 12 11 6 5 5 3 2 3 4 4 3 7 9 6 2 3 1 3 2 1 2 1 1 1 1 1 3 2 3 2 1 4 2 3 3 4 5 2 3 3 7
11 11 13 13 13 14 15 15 15 16 16 14 11 10 8 4 3 2 3 3 2 3 5 3 7 1 4 11 13 4 3 1 3 2 2 2 1 1 1 2 2 2 3 2 3 4 3 3 2 1 2 6 6 6
11 11 13 14 13 14 14 15 14 15 15 13 10 5 4 3 4 3 2 1 2 2 4 2 3 6 2 6 12 11 2 4 4 1 1 1 1 3 1 1 3 1 5 4 2 3 4 5 5 3 4 4 6 5
10 11 12 13 13 14 14 14 13 13 13 11 7 5 5 5 6 4 4 4 3 3 3 6 11 2 5 8 8 12 10 3 1 2 2 2 2 3 1 1 4 5 4 5 3 5 1 2 2 3 5 7 6 6
12 13 13 13 13 14 14 13 12 12 11 11 6 6 6 6 8 2 3 3 5 2 3 4 4 3 1 6 8 11 9 4 2 3 2 2 0 3 3 3 5 6 5 4 1 4 3 2 4 6 9 7 6 5
14 14 14 13 13 13 14 12 11 10 9 8 7 7 7 6 2 3 3 2 2 2 3 4 4 1 1 3 3 4 6 3 3 3 4 3 3 3 2 4 4 3 4 3 3 1 3 2 4 6 9 8 7 5
15 15 14 13 13 13 14 11 10 9 8 9 8 9 9 10 8 5 2 10 5 3 3 4 4 3 1 3 4 2 5 3 3 2 2 3 4 2 5 7 4 5 6 6 9 9 11 9 6 7 9 9 10 7
15 15 14 13 12 12 11 9 9 9 8 9 8 10 3 2 3 0 9 10 2 4 3 4 3 3 1 2 2 3 2 5 2 4 4 6 4 6 3 3 2 4 4 6 9 7 7 11 9 6 10 11 12 10
15 14 13 12 11 12 10 7 7 7 8 5 2 1 2 3 5 4 2 3 4 4 4 4 1 2 2 2 3 4 3 4 6 6 6 6 5 6 2 3 4 6 6 6 5 3 1 4 8 9 13 12 13 13
14 13 12 13 11 10 8 7 6 6 4 1 1 3 3 5 1 2 4 5 5 5 5 4 9 5 3 3 3 2 3 4 6 6 9 6 5 6 3 3 4 5 6 7 8 10 11 9 5 4 7 11 10 10
13 11 11 11 11 10 7 5 5 2 1 1 2 3 3 3 2 4 4 3 4 5 5 8 13 6 3 2 2 3 3 3 6 7 7 6 4 4 3 4 5 7 7 7 7 7 6 8 9 8 8 8 12 13
12 11 11 11 11 10 9 6 5 5 3 2 3 3 3 3 5 6 5 3 3 3 4 4 9 5 3 2 1 3 5 6 5 6 4 3 6 3 3 5 5 7 7 7 8 8 8 9 7 8 10 9 8 9
11 11 11 11 10 7 7 6 4 2 2 3 3 3 5 5 5 5 5 2 3 3 2 4 6 3 3 6 3 4 4 3 4 7 5 5 5 3 2 4 5 8 9 9 9 9 9 10 10 8 7 7 8 10
9 8 8 7 8 7 5 4 1 1 2 3 4 5 8 4 3 3 4 4 1 3 3 3 3 1 3 3 4 4 3 5 1 4 4 6 5 3 2 3 4 6 7 8 9 9 9 9 9 9 7 5 8 8
7 5 5 10 11 8 7 3 2 2 2 3 5 5 3 2 3 3 4 6 1 1 2 1 3 2 5 3 5 8 6 3 5 5 6 5 3 2 0 2 4 4 6 6 8 9 9 10 11 12 12 8 7 10
10 2 9 13 12 11 9 2 2 3 2 4 2 2 3 2 3 3 4 2 3 2 2 2 5 4 2 2 3 2 3 7 6 5 4 3 3 2 3 4 4 5 7 7 8 8 8 9 10 10 12 10 9 10
2 3 11 13 9 6 2 2 2 4 5 4 4 2 1 0 3 4 5 4 3 3 3 1 1 3 2 2 3 3 4 3 3 2 1 1 3 4 4 5 5 6 7 8 9 10 11 11 11 8 13 12 10 9
5 7 10 17 6 3 2 3 2 2 3 2 1 3 3 1 2 6 4 3 5 3 1 2 2 1 2 3 6 4 2 3 3 2 3 3 4 4 4 4 6 6 6 7 8 7 8 9 9 9 9 9 8 7
10 9 20 15 5 2 3 2 1 3 2 2 2 2 2 3 3 2 4 4 4 2 2 2 3 3 3 4 5 6 5 3 1 2 3 2 1 1 3 4 5 6 6 7 7 5 7 7 6 7 8 9 10 9
5 9 16 6 1 3 2 1 3 2 2 3 3 2 3 2 3 4 4 1 3 2 1 1 1 0 2 1 2 3 3 4 5 3 4 4 2 3 4 5 6 5 5 5 6 7 7 7 7 8 9 9 9 9
3 8 3 2 1 2 2 2 3 2 2 2 2 2 3 3 4 4 3 4 3 3 5 5 5 6 6 5 5 7 6 7 6 4 6 4 4 5 5 4 4 5 5 6 7 7 7 7 6 7 8 9 9 9
6 3 2 1 2 1 3 1 3 2 3 1 2 3 3 3 2 2 4 3 4 4 4 5 7 6 8 6 4 6 5 5 5 6 7 6 6 6 6 6 5 6 6 7 6 7 8 7 8 8 8 9 8 9
2 3 3 3 3 2 1 2 3 2 2 2 2 3 2 2 1 1 3 2 2 1 2 5 4 5 3 4 5 7 4 4 6 6 7 6 6 6 5 6 5 6 6 6 7 7 8 8 8 7 9 11 10 9
2 2 3 2 2 3 4 3 3 2 3 4 3 3 1 1 2 3 2 2 2 2 2 1 1 3 5 4 4 4 4 5 5 6 5 5 5 4 5 6 6 7 5 6 8 8 9 8 8 9 11 12 13 13
2 4 5 4 3 4 3 3 4 5 3 3 4 2 1 2 3 3 1 1 1 2 1 1 1 1 2 3 3 1 2 1 2 4 3 4 4 5 5 5 6 8 4 6 6 8 8 8 9 10 10 14 13 11
1 2 3 2 2 3 2 3 1 3 4 3 2 2 2 2 2 0 1 2 2 1 1 1 1 1 1 2 3 3 3 4 5 6 5 5 4 5 6 7 9 7 4 5 6 7 8 8 8 8 10 11 10 11
3 2 4 3 3 3 2 3 3 4 3 2 2 2 1 1 2 0 2 1 3 2 2 2 3 3 4 4 4 4 4 3 4 5 5 4 2 2 3 3 6 10 9 9 8 7 8 6 5 7 10 10 8 5
4 3 3 5 5 4 5 4 3 2 1 2 1 2 2 2 1 2 2 2 1 3 4 4 2 3 4 4 4 3 3 3 3 4 4 4 3 2 3 6 7 7 5 6 8 8 8 3 3 5 7 7 7 4
3 4 3 3 3 2 2 4 3 1 3 2 2 2 3 3 3 3 4 3 4 4 4 4 4 3 3 2 2 3 2 1 2 3 4 5 5 6 7 7 7 8 6 5 6 4 4 4 1 3 5 5 4 4
1 3 4 3 3 3 4 3 3 3 3 4 4 5 7 4 2 1 1 3 4 4 4 4 3 2 3 3 3 2 1 3 3 4 5 5 5 5 6 7 6 6 5 4 4 4 7 5 0 2 3 3 6 8
3 5 3 3 3 2 1 2 2 2 1 2 1 1 2 2 3 1 1 2 2 4 3 2 1 0 1 1 1 1 3 3 3 4 5 4 3 3 4 4 5 4 4 3 4 5 6 4 2 2 2 3 5 6
2 2 3 2 2 3 0 3 2 2 1 2 2 2 2 2 2 2 1 1 2 2 3 3 1 1 1 4 4 3 3 3 5 6 6 4 5 6 5 4 3 3 2 2 3 3 6 5 4 3 4 4 5 6
Wind_Direction
307 309 309 307 310 315 320 321 320 322 318 310 315 311 314 321 349 343 293 302 318 280 274 216 247 206 169 176 315 15 248 153 52 82 286 106 246 74 162 42 346 168 158 150 141 206 235 29 269 251 32 79 168 169
294 302 307 307 306 309 312 314 318 315 312 302 309 296 302 307 339 346 282 17 328 245 295 284 264 261 251 263 289 211 334 244 178 112 177 156 160 189 178 132 163 176 282 101 242 77 335 287 286 315 267 122 137 159
298 303 307 306 307 309 311 312 315 317 313 313 297 281 295 337 352 341 287 309 270 279 266 272 244 236 214 220 220 236 209 200 173 343 128 93 201 211 193 141 196 198 177 191 208 163 254 317 166 171 117 112 127 142
289 298 305 305 305 307 310 312 312 320 328 338 355 33 40 12 356 334 267 308 276 301 276 278 341 281 243 182 199 219 52 122 93 186 122 145 206 217 179 23 267 36 166 168 237 239 253 234 222 184 158 154 130 130
298 299 301 301 302 303 306 309 309 315 322 327 349 13 12 347 327 287 248 242 256 288 307 295 305 243 229 200 201 196 206 182 139 161 185 206 125 182 118 236 240 192 178 201 210 192 183 224 184 201 201 190 173 164
290 290 293 295 295 298 301 303 304 309 313 324 329 335 334 338 339 290 252 171 212 229 271 285 334 255 143 190 188 182 194 193 210 199 179 194 207 242 210 234 258 220 223 241 265 178 212 297 278 230 217 195 189 207
279 282 285 288 290 293 299 298 293 295 298 300 310 302 303 312 311 236 327 46 47 210 233 264 253 193 274 177 137 139 170 179 217 161 200 166 167 215 214 231 253 248 268 253 247 216 237 212 320 251 217 189 177 207
271 273 277 275 280 288 298 301 303 293 288 293 284 284 287 286 271 273 231 219 180 265 241 253 255 267 161 171 167 172 149 182 177 151 150 178 140 212 242 241 279 290 275 242 238 242 262 286 286 260 209 178 181 186
269 262 265 270 272 283 291 301 311 301 291 299 276 290 290 206 225 116 114 128 218 269 237 208 232 158 90 127 125 149 203 172 102 202 197 173 156 213 221 303 325 360 328 323 317 290 256 241 243 230 205 198 195 189
265 262 255 255 263 271 276 290 312 307 302 304 293 246 245 216 316 297 113 197 200 204 217 239 209 213 226 174 154 154 200 182 177 193 133 214 209 107 80 280 296 312 321 315 289 257 241 237 217 210 208 207 202 192
262 256 248 243 246 262 258 282 309 308 261 245 240 244 312 297 227 221 217 208 179 206 192 203 207 203 168 205 155 238 170 165 202 173 196 199 211 156 21 328 339 328 318 295 279 277 275 275 279 248 235 224 215 211
253 251 238 229 236 248 252 247 286 254 285 311 305 286 266 246 186 243 234 227 223 211 184 186 193 199 143 183 205 175 217 189 223 140 191 198 118 117 17 0 351 343 336 333 326 315 308 270 261 252 249 239 226 214
242 241 228 215 225 231 231 211 248 261 327 273 233 233 197 192 237 206 216 226 228 202 186 178 181 188 144 214 164 193 213 216 114 187 201 88 122 114 28 4 358 354 347 344 353 354 346 332 301 254 247 238 220 224
235 230 216 211 221 230 202 195 219 196 240 236 226 223 217 194 226 228 242 330 329 310 165 165 153 169 145 180 181 214 213 160 218 197 166 144 137 118 36 7 4 359 354 349 344 344 346 339 326 307 266 251 220 217
236 198 199 200 186 184 218 137 176 251 205 232 230 216 223 242 269 266 281 282 255 306 221 150 99 170 170 178 203 202 191 220 27 116 137 145 140 121 87 35 10 359 350 345 339 334 333 328 322 322 322 288 242 240
181 162 194 177 175 180 164 130 176 236 209 247 220 254 212 232 261 251 252 260 236 233 300 272 142 223 186 215 186 205 199 126 126 129 134 141 154 144 173 334 345 346 333 326 330 337 328 324 330 328 312 290 254 228
155 197 179 162 168 157 153 163 212 202 215 256 248 275 274 293 288 313 324 4 304 186 279 138 179 189 343 207 158 50 82 121 121 126 135 165 198 250 330 318 326 337 336 339 332 330 326 320 325 327 326 331 290 249
125 169 162 150 131 125 134 222 272 197 227 258 271 325 297 300 316 303 342 343 296 224 166 329 56 203 155 325 89 94 43 51 82 95 122 152 228 238 243 279 312 326 330 332 335 328 334 341 333 329 328 324 295 255
150 169 175 141 124 121 156 187 240 260 251 259 301 273 266 262 115 280 299 301 301 284 184 103 263 160 118 84 110 108 150 196 186 233 251 224 210 234 244 265 298 308 315 325 327 325 320 322 313 312 313 321 292 267
144 164 144 140 127 161 180 207 232 247 273 329 268 240 252 251 193 244 282 214 266 236 164 102 249 134 154 153 195 176 175 179 158 240 268 278 208 196 238 243 258 282 300 309 304 303 305 307 312 321 315 316 305 284
108 145 136 125 86 62 326 276 201 242 288 241 270 273 259 212 239 222 258 284 237 212 241 225 115 95 306 104 135 126 174 182 205 226 280 286 303 247 260 256 258 255 263 289 296 297 274 289 307 315 313 311 307 310
86 94 101 176 128 160 240 232 279 313 244 273 265 231 258 233 214 204 172 208 232 211 197 194 229 182 194 213 201 207 226 206 231 241 251 249 263 271 276 272 267 271 266 266 276 282 287 286 294 307 299 301 299 299
89 75 86 195 157 144 263 238 256 223 255 230 218 248 235 232 200 178 228 219 246 231 229 243 249 246 225 227 209 237 222 214 238 243 256 258 262 256 252 261 247 246 253 259 257 269 278 280 280 283 288 290 291 292
41 117 175 176 192 213 269 245 219 245 299 272 248 262 224 245 101 260 270 263 247 296 230 248 247 243 228 223 242 250 249 210 242 251 245 240 251 261 249 260 258 249 252 268 265 258 261 266 273 281 291 295 288 279
118 155 143 218 203 216 229 228 220 249 255 216 255 250 209 183 235 230 250 282 303 327 341 4 197 231 251 271 282 275 224 229 242 253 266 218 243 262 259 259 268 265 254 244 250 251 258 263 268 283 291 291 282 280
179 181 181 199 175 228 230 249 208 224 247 242 232 271 264 239 249 256 252 328 303 318 15 67 87 137 215 232 280 47 92 138 232 261 270 230 229 242 271 281 290 293 229 238 254 263 266 265 279 290 291 291 276 263
279 211 195 228 260 247 255 266 272 281 258 234 231 225 240 240 250 345 293 218 257 223 271 270 246 231 315 306 278 266 242 223 248 277 292 270 261 259 263 269 278 284 289 269 269 261 268 278 280 298 301 300 280 262
263 286 222 168 203 225 210 228 240 242 240 190 232 239 275 273 6 241 252 270 263 271 244 233 228 239 259 273 277 282 279 246 273 274 247 233 231 218 228 276 286 280 266 259 256 257 258 260 294 310 311 300 299 259
245 226 221 228 213 210 220 241 233 229 225 201 282 300 256 225 247 253 268 253 273 275 278 273 227 226 257 267 266 260 269 269 297 305 303 317 311 254 331 318 316 327 306 256 221 232 270 245 296 336 341 323 299 300
250 188 241 233 221 255 275 196 244 210 207 249 282 280 253 251 258 286 284 281 278 280 282 280 284 270 286 297 343 40 75 352 342 334 330 340 338 327 318 310 314 323 315 262 234 205 210 229 206 63 27 6 336 33
248 196 240 237 258 242 246 274 264 246 236 238 226 252 275 306 290 201 300 319 309 303 288 273 247 225 240 255 285 308 62 117 14 336 317 304 299 318 318 314 318 322 311 258 233 243 209 202 102 15 37 40 36 49
204 217 223 235 259 279 284 248 286 277 304 293 298 271 272 256 262 83 9 336 16 30 16 321 225 126 131 84 45 319 285 307 335 347 351 346 329 315 308 327 327 326 292 189 89 73 61 43 14 281 253 97 77 67
236 216 231 269 261 260 25 304 246 308 296 344 1 329 297 291 304 10 48 4 354 333 326 315 304 165 348 325 312 303 267 297 316 297 286 270 261 285 301 322 326 310 315 313 145 240 286 319 299 70 39 20 24 16